Year,Month,Day,Hour,Minute,Value (Times are PST for temperature in C)
2008,08,16,00,00,16.30
2008,08,16,00,01,16.20
2008,08,16,00,02,16.00
2008,08,16,00,03,15.70
2008,08,16,00,04,15.40
2008,08,16,00,05,15.20
2008,08,16,00,06,15.00
2008,08,16,00,07,15.00
2008,08,16,00,08,15.00
2008,08,16,00,09,14.80
2008,08,16,00,10,14.80
2008,08,16,00,11,14.70
2008,08,16,00,12,14.60
2008,08,16,00,13,14.60
2008,08,16,00,14,14.50
2008,08,16,00,15,14.40
2008,08,16,00,16,14.40
2008,08,16,00,17,14.40
2008,08,16,00,18,14.30
2008,08,16,00,19,14.30
2008,08,16,00,20,14.30
2008,08,16,00,21,14.30
2008,08,16,00,22,14.30
2008,08,16,00,23,14.20
2008,08,16,00,24,14.10
2008,08,16,00,25,14.00
2008,08,16,00,26,14.00
2008,08,16,00,27,13.90
2008,08,16,00,28,13.80
2008,08,16,00,29,13.70
2008,08,16,00,30,13.70
2008,08,16,00,31,13.70
2008,08,16,00,32,13.60
2008,08,16,00,33,13.60
2008,08,16,00,34,13.60
2008,08,16,00,35,13.60
2008,08,16,00,36,13.60
2008,08,16,00,37,13.60
2008,08,16,00,38,13.60
2008,08,16,00,39,13.60
2008,08,16,00,40,13.60
2008,08,16,00,41,13.60
2008,08,16,00,42,13.60
2008,08,16,00,43,13.60
2008,08,16,00,44,13.60
2008,08,16,00,45,13.60
2008,08,16,00,46,13.60
2008,08,16,00,47,13.60
2008,08,16,00,48,13.60
2008,08,16,00,49,13.60
2008,08,16,00,50,13.50
2008,08,16,00,51,13.50
2008,08,16,00,52,13.50
2008,08,16,00,53,13.50
2008,08,16,00,54,13.50
2008,08,16,00,55,13.50
2008,08,16,00,56,13.40
2008,08,16,00,57,13.40
2008,08,16,00,58,13.40
2008,08,16,00,59,13.40
2008,08,16,01,00,13.40
2008,08,16,01,01,13.40
2008,08,16,01,02,13.40
2008,08,16,01,03,13.50
2008,08,16,01,04,13.50
2008,08,16,01,05,13.50
2008,08,16,01,06,13.50
2008,08,16,01,07,13.60
2008,08,16,01,08,13.60
2008,08,16,01,09,13.60
2008,08,16,01,10,13.60
2008,08,16,01,11,13.60
2008,08,16,01,12,13.60
2008,08,16,01,13,13.60
2008,08,16,01,14,13.70
2008,08,16,01,15,13.70
2008,08,16,01,16,13.70
2008,08,16,01,17,13.70
2008,08,16,01,18,13.70
2008,08,16,01,19,13.80
2008,08,16,01,20,13.80
2008,08,16,01,21,13.80
2008,08,16,01,22,13.80
2008,08,16,01,23,13.90
2008,08,16,01,24,13.90
2008,08,16,01,25,14.00
2008,08,16,01,26,14.00
2008,08,16,01,27,14.10
2008,08,16,01,28,14.10
2008,08,16,01,29,14.10
2008,08,16,01,30,14.10
2008,08,16,01,31,14.20
2008,08,16,01,32,14.20
2008,08,16,01,33,14.20
2008,08,16,01,34,14.20
2008,08,16,01,35,14.20
2008,08,16,01,36,14.30
2008,08,16,01,37,14.30
2008,08,16,01,38,14.30
2008,08,16,01,39,14.30
2008,08,16,01,40,14.30
2008,08,16,01,41,14.30
2008,08,16,01,42,14.40
2008,08,16,01,43,14.40
2008,08,16,01,44,14.40
2008,08,16,01,45,14.40
2008,08,16,01,46,14.40
2008,08,16,01,47,14.40
2008,08,16,01,48,14.40
2008,08,16,01,49,14.40
2008,08,16,01,50,14.40
2008,08,16,01,51,14.40
2008,08,16,01,52,14.40
2008,08,16,01,53,14.30
2008,08,16,01,54,14.20
2008,08,16,01,55,14.20
2008,08,16,01,56,14.20
2008,08,16,01,57,14.20
2008,08,16,01,58,14.10
2008,08,16,01,59,14.10
2008,08,16,02,00,14.10
2008,08,16,02,01,14.10
2008,08,16,02,02,14.10
2008,08,16,02,03,14.10
2008,08,16,02,04,14.10
2008,08,16,02,05,14.10
2008,08,16,02,06,14.10
2008,08,16,02,07,14.10
2008,08,16,02,08,14.10
2008,08,16,02,09,14.10
2008,08,16,02,10,14.10
2008,08,16,02,11,14.10
2008,08,16,02,12,14.10
2008,08,16,02,13,14.10
2008,08,16,02,14,14.10
2008,08,16,02,15,14.10
2008,08,16,02,16,14.20
2008,08,16,02,17,14.20
2008,08,16,02,18,14.20
2008,08,16,02,19,14.20
2008,08,16,02,20,14.20
2008,08,16,02,21,14.30
2008,08,16,02,22,14.30
2008,08,16,02,23,14.30
2008,08,16,02,24,14.30
2008,08,16,02,25,14.40
2008,08,16,02,26,14.40
2008,08,16,02,27,14.40
2008,08,16,02,28,14.50
2008,08,16,02,29,14.50
2008,08,16,02,30,14.50
2008,08,16,02,31,14.60
2008,08,16,02,32,14.60
2008,08,16,02,33,14.60
2008,08,16,02,34,14.60
2008,08,16,02,35,14.60
2008,08,16,02,36,14.60
2008,08,16,02,37,14.60
2008,08,16,02,38,14.60
2008,08,16,02,39,14.60
2008,08,16,02,40,14.70
2008,08,16,02,41,14.70
2008,08,16,02,42,14.70
2008,08,16,02,43,14.70
2008,08,16,02,44,14.80
2008,08,16,02,45,14.80
2008,08,16,02,46,14.90
2008,08,16,02,47,14.90
2008,08,16,02,48,15.00
2008,08,16,02,49,15.00
2008,08,16,02,50,15.00
2008,08,16,02,51,15.00
2008,08,16,02,52,15.00
2008,08,16,02,53,15.10
2008,08,16,02,54,15.10
2008,08,16,02,55,15.10
2008,08,16,02,56,15.20
2008,08,16,02,57,15.30
2008,08,16,02,58,15.40
2008,08,16,02,59,15.40
2008,08,16,03,00,15.50
2008,08,16,03,01,15.50
2008,08,16,03,02,15.60
2008,08,16,03,03,15.60
2008,08,16,03,04,15.60
2008,08,16,03,05,15.70
2008,08,16,03,06,15.70
2008,08,16,03,07,15.70
2008,08,16,03,08,15.60
2008,08,16,03,09,15.60
2008,08,16,03,10,15.60
2008,08,16,03,11,15.50
2008,08,16,03,12,15.50
2008,08,16,03,13,15.50
2008,08,16,03,14,15.40
2008,08,16,03,15,15.40
2008,08,16,03,16,15.30
2008,08,16,03,17,15.20
2008,08,16,03,18,15.10
2008,08,16,03,19,15.00
2008,08,16,03,20,15.00
2008,08,16,03,21,15.00
2008,08,16,03,22,15.00
2008,08,16,03,23,15.00
2008,08,16,03,24,15.00
2008,08,16,03,25,15.00
2008,08,16,03,26,15.00
2008,08,16,03,27,14.80
2008,08,16,03,28,14.70
2008,08,16,03,29,14.70
2008,08,16,03,30,14.60
2008,08,16,03,31,14.60
2008,08,16,03,32,14.50
2008,08,16,03,33,14.40
2008,08,16,03,34,14.40
2008,08,16,03,35,14.30
2008,08,16,03,36,14.20
2008,08,16,03,37,14.20
2008,08,16,03,38,14.20
2008,08,16,03,39,14.10
2008,08,16,03,40,14.10
2008,08,16,03,41,14.10
2008,08,16,03,42,14.10
2008,08,16,03,43,14.00
2008,08,16,03,44,14.00
2008,08,16,03,45,14.00
2008,08,16,03,46,14.00
2008,08,16,03,47,13.90
2008,08,16,03,48,13.90
2008,08,16,03,49,13.80
2008,08,16,03,50,13.80
2008,08,16,03,51,13.80
2008,08,16,03,52,13.80
2008,08,16,03,53,13.80
2008,08,16,03,54,13.70
2008,08,16,03,55,13.70
2008,08,16,03,56,13.70
2008,08,16,03,57,13.60
2008,08,16,03,58,13.60
2008,08,16,03,59,13.60
2008,08,16,04,00,13.60
2008,08,16,04,01,13.60
2008,08,16,04,02,13.60
2008,08,16,04,03,13.50
2008,08,16,04,04,13.50
2008,08,16,04,05,13.50
2008,08,16,04,06,13.50
2008,08,16,04,07,13.50
2008,08,16,04,08,13.40
2008,08,16,04,09,13.40
2008,08,16,04,10,13.40
2008,08,16,04,11,13.40
2008,08,16,04,12,13.40
2008,08,16,04,13,13.40
2008,08,16,04,14,13.40
2008,08,16,04,15,13.40
2008,08,16,04,16,13.40
2008,08,16,04,17,13.40
2008,08,16,04,18,13.40
2008,08,16,04,19,13.40
2008,08,16,04,20,13.50
2008,08,16,04,21,13.50
2008,08,16,04,22,13.50
2008,08,16,04,23,13.60
2008,08,16,04,24,13.60
2008,08,16,04,25,13.60
2008,08,16,04,26,13.60
2008,08,16,04,27,13.60
2008,08,16,04,28,13.60
2008,08,16,04,29,13.60
2008,08,16,04,30,13.60
2008,08,16,04,31,13.60
2008,08,16,04,32,13.60
2008,08,16,04,33,13.60
2008,08,16,04,34,13.60
2008,08,16,04,35,13.60
2008,08,16,04,36,13.60
2008,08,16,04,37,13.60
2008,08,16,04,38,13.60
2008,08,16,04,39,13.60
2008,08,16,04,40,13.60
2008,08,16,04,41,13.60
2008,08,16,04,42,13.60
2008,08,16,04,43,13.60
2008,08,16,04,44,13.50
2008,08,16,04,45,13.50
2008,08,16,04,46,13.50
2008,08,16,04,47,13.50
2008,08,16,04,48,13.50
2008,08,16,04,49,13.50
2008,08,16,04,50,13.50
2008,08,16,04,51,13.50
2008,08,16,04,52,13.50
2008,08,16,04,53,13.50
2008,08,16,04,54,13.50
2008,08,16,04,55,13.50
2008,08,16,04,56,13.50
2008,08,16,04,57,13.50
2008,08,16,04,58,13.50
2008,08,16,04,59,13.50
2008,08,16,05,00,13.50
2008,08,16,05,01,13.50
2008,08,16,05,02,13.60
2008,08,16,05,03,13.60
2008,08,16,05,04,13.60
2008,08,16,05,05,13.60
2008,08,16,05,06,13.60
2008,08,16,05,07,13.60
2008,08,16,05,08,13.70
2008,08,16,05,09,13.70
2008,08,16,05,10,13.70
2008,08,16,05,11,13.70
2008,08,16,05,12,13.80
2008,08,16,05,13,13.80
2008,08,16,05,14,13.90
2008,08,16,05,15,14.00
2008,08,16,05,16,14.00
2008,08,16,05,17,14.00
2008,08,16,05,18,14.10
2008,08,16,05,19,14.10
2008,08,16,05,20,14.10
2008,08,16,05,21,14.10
2008,08,16,05,22,14.10
2008,08,16,05,23,14.20
2008,08,16,05,24,14.20
2008,08,16,05,25,14.20
2008,08,16,05,26,14.20
2008,08,16,05,27,14.30
2008,08,16,05,28,14.30
2008,08,16,05,29,14.30
2008,08,16,05,30,14.30
2008,08,16,05,31,14.30
2008,08,16,05,32,14.30
2008,08,16,05,33,14.30
2008,08,16,05,34,14.30
2008,08,16,05,35,14.30
2008,08,16,05,36,14.30
2008,08,16,05,37,14.30
2008,08,16,05,38,14.20
2008,08,16,05,39,14.20
2008,08,16,05,40,14.20
2008,08,16,05,41,14.20
2008,08,16,05,42,14.10
2008,08,16,05,43,14.10
2008,08,16,05,44,14.10
2008,08,16,05,45,14.10
2008,08,16,05,46,14.10
2008,08,16,05,47,14.10
2008,08,16,05,48,14.20
2008,08,16,05,49,14.20
2008,08,16,05,50,14.20
2008,08,16,05,51,14.20
2008,08,16,05,52,14.20
2008,08,16,05,53,14.30
2008,08,16,05,54,14.30
2008,08,16,05,55,14.30
2008,08,16,05,56,14.30
2008,08,16,05,57,14.30
2008,08,16,05,58,14.30
2008,08,16,05,59,14.30
2008,08,16,06,00,14.30
2008,08,16,06,01,14.30
2008,08,16,06,02,14.30
2008,08,16,06,03,14.30
2008,08,16,06,04,14.30
2008,08,16,06,05,14.30
2008,08,16,06,06,14.30
2008,08,16,06,07,14.30
2008,08,16,06,08,14.30
2008,08,16,06,09,14.30
2008,08,16,06,10,14.20
2008,08,16,06,11,14.20
2008,08,16,06,12,14.20
2008,08,16,06,13,14.20
2008,08,16,06,14,14.20
2008,08,16,06,15,14.20
2008,08,16,06,16,14.20
2008,08,16,06,17,14.20
2008,08,16,06,18,14.20
2008,08,16,06,19,14.20
2008,08,16,06,20,14.30
2008,08,16,06,21,14.30
2008,08,16,06,22,14.30
2008,08,16,06,23,14.30
2008,08,16,06,24,14.40
2008,08,16,06,25,14.40
2008,08,16,06,26,14.40
2008,08,16,06,27,14.40
2008,08,16,06,28,14.40
2008,08,16,06,29,14.50
2008,08,16,06,30,14.50
2008,08,16,06,31,14.60
2008,08,16,06,32,14.60
2008,08,16,06,33,14.60
2008,08,16,06,34,14.60
2008,08,16,06,35,14.70
2008,08,16,06,36,14.70
2008,08,16,06,37,14.70
2008,08,16,06,38,14.80
2008,08,16,06,39,14.80
2008,08,16,06,40,14.90
2008,08,16,06,41,14.90
2008,08,16,06,42,15.00
2008,08,16,06,43,15.00
2008,08,16,06,44,15.00
2008,08,16,06,45,15.00
2008,08,16,06,46,15.00
2008,08,16,06,47,15.00
2008,08,16,06,48,15.00
2008,08,16,06,49,15.00
2008,08,16,06,50,15.10
2008,08,16,06,51,15.20
2008,08,16,06,52,15.20
2008,08,16,06,53,15.30
2008,08,16,06,54,15.30
2008,08,16,06,55,15.40
2008,08,16,06,56,15.40
2008,08,16,06,57,15.50
2008,08,16,06,58,15.50
2008,08,16,06,59,15.50
2008,08,16,07,00,15.50
2008,08,16,07,01,15.60
2008,08,16,07,02,15.50
2008,08,16,07,03,15.20
2008,08,16,07,04,15.00
2008,08,16,07,05,15.00
2008,08,16,07,06,15.00
2008,08,16,07,07,15.00
2008,08,16,07,08,15.00
2008,08,16,07,09,15.00
2008,08,16,07,10,15.00
2008,08,16,07,11,15.00
2008,08,16,07,12,15.00
2008,08,16,07,13,15.10
2008,08,16,07,14,15.00
2008,08,16,07,15,15.00
2008,08,16,07,16,15.00
2008,08,16,07,17,15.10
2008,08,16,07,18,15.10
2008,08,16,07,19,15.20
2008,08,16,07,20,15.20
2008,08,16,07,21,15.10
2008,08,16,07,22,15.00
2008,08,16,07,23,15.10
2008,08,16,07,24,15.10
2008,08,16,07,25,15.00
2008,08,16,07,26,14.80
2008,08,16,07,27,14.70
2008,08,16,07,28,14.70
2008,08,16,07,29,14.70
2008,08,16,07,30,14.70
2008,08,16,07,31,14.70
2008,08,16,07,32,14.80
2008,08,16,07,33,14.90
2008,08,16,07,34,15.00
2008,08,16,07,35,15.00
2008,08,16,07,36,15.00
2008,08,16,07,37,15.00
2008,08,16,07,38,15.20
2008,08,16,07,39,15.30
2008,08,16,07,40,15.40
2008,08,16,07,41,15.50
2008,08,16,07,42,15.60
2008,08,16,07,43,15.80
2008,08,16,07,44,15.90
2008,08,16,07,45,16.00
2008,08,16,07,46,16.10
2008,08,16,07,47,16.30
2008,08,16,07,48,16.40
2008,08,16,07,49,16.40
2008,08,16,07,50,16.20
2008,08,16,07,51,16.20
2008,08,16,07,52,16.20
2008,08,16,07,53,16.20
2008,08,16,07,54,16.20
2008,08,16,07,55,16.20
2008,08,16,07,56,16.20
2008,08,16,07,57,16.20
2008,08,16,07,58,16.20
2008,08,16,07,59,16.20
2008,08,16,08,00,16.30
2008,08,16,08,01,16.30
2008,08,16,08,02,16.40
2008,08,16,08,03,16.50
2008,08,16,08,04,16.60
2008,08,16,08,05,16.70
2008,08,16,08,06,16.90
2008,08,16,08,07,17.10
2008,08,16,08,08,17.30
2008,08,16,08,09,17.50
2008,08,16,08,10,17.70
2008,08,16,08,11,17.80
2008,08,16,08,12,18.00
2008,08,16,08,13,18.10
2008,08,16,08,14,18.20
2008,08,16,08,15,18.40
2008,08,16,08,16,18.50
2008,08,16,08,17,18.70
2008,08,16,08,18,18.80
2008,08,16,08,19,19.00
2008,08,16,08,20,19.10
2008,08,16,08,21,19.20
2008,08,16,08,22,19.30
2008,08,16,08,23,19.40
2008,08,16,08,24,19.50
2008,08,16,08,25,19.60
2008,08,16,08,26,19.70
2008,08,16,08,27,19.80
2008,08,16,08,28,19.90
2008,08,16,08,29,19.90
2008,08,16,08,30,19.90
2008,08,16,08,31,19.90
2008,08,16,08,32,19.90
2008,08,16,08,33,19.90
2008,08,16,08,34,19.90
2008,08,16,08,35,19.90
2008,08,16,08,36,19.90
2008,08,16,08,37,19.90
2008,08,16,08,38,20.00
2008,08,16,08,39,20.10
2008,08,16,08,40,20.20
2008,08,16,08,41,20.30
2008,08,16,08,42,20.40
2008,08,16,08,43,20.50
2008,08,16,08,44,20.60
2008,08,16,08,45,20.70
2008,08,16,08,46,20.80
2008,08,16,08,47,20.80
2008,08,16,08,48,20.70
2008,08,16,08,49,20.50
2008,08,16,08,50,20.40
2008,08,16,08,51,20.30
2008,08,16,08,52,20.10
2008,08,16,08,53,19.90
2008,08,16,08,54,19.80
2008,08,16,08,55,19.80
2008,08,16,08,56,19.70
2008,08,16,08,57,19.50
2008,08,16,08,58,19.30
2008,08,16,08,59,19.20
2008,08,16,09,00,19.20
2008,08,16,09,01,19.20
2008,08,16,09,02,19.20
2008,08,16,09,03,19.10
2008,08,16,09,04,19.10
2008,08,16,09,05,19.10
2008,08,16,09,06,19.10
2008,08,16,09,07,19.20
2008,08,16,09,08,19.20
2008,08,16,09,09,19.30
2008,08,16,09,10,19.40
2008,08,16,09,11,19.40
2008,08,16,09,12,19.50
2008,08,16,09,13,19.60
2008,08,16,09,14,19.60
2008,08,16,09,15,19.60
2008,08,16,09,16,19.70
2008,08,16,09,17,19.70
2008,08,16,09,18,19.60
2008,08,16,09,19,19.50
2008,08,16,09,20,19.30
2008,08,16,09,21,19.10
2008,08,16,09,22,18.90
2008,08,16,09,23,18.90
2008,08,16,09,24,18.90
2008,08,16,09,25,18.90
2008,08,16,09,26,18.70
2008,08,16,09,27,18.40
2008,08,16,09,28,18.10
2008,08,16,09,29,17.90
2008,08,16,09,30,17.70
2008,08,16,09,31,17.70
2008,08,16,09,32,17.70
2008,08,16,09,33,17.80
2008,08,16,09,34,17.80
2008,08,16,09,35,17.80
2008,08,16,09,36,17.80
2008,08,16,09,37,17.80
2008,08,16,09,38,17.70
2008,08,16,09,39,17.80
2008,08,16,09,40,17.80
2008,08,16,09,41,18.00
2008,08,16,09,42,18.10
2008,08,16,09,43,18.10
2008,08,16,09,44,18.00
2008,08,16,09,45,17.90
2008,08,16,09,46,17.80
2008,08,16,09,47,17.70
2008,08,16,09,48,17.70
2008,08,16,09,49,17.70
2008,08,16,09,50,17.80
2008,08,16,09,51,17.90
2008,08,16,09,52,18.10
2008,08,16,09,53,18.20
2008,08,16,09,54,18.30
2008,08,16,09,55,18.40
2008,08,16,09,56,18.50
2008,08,16,09,57,18.60
2008,08,16,09,58,18.70
2008,08,16,09,59,18.90
2008,08,16,10,00,19.00
2008,08,16,10,01,19.10
2008,08,16,10,02,19.10
2008,08,16,10,03,19.20
2008,08,16,10,04,19.20
2008,08,16,10,05,19.30
2008,08,16,10,06,19.40
2008,08,16,10,07,19.50
2008,08,16,10,08,19.70
2008,08,16,10,09,19.70
2008,08,16,10,10,19.80
2008,08,16,10,11,19.80
2008,08,16,10,12,19.80
2008,08,16,10,13,19.80
2008,08,16,10,14,19.90
2008,08,16,10,15,19.90
2008,08,16,10,16,19.90
2008,08,16,10,17,19.90
2008,08,16,10,18,19.90
2008,08,16,10,19,19.90
2008,08,16,10,20,19.90
2008,08,16,10,21,19.80
2008,08,16,10,22,19.80
2008,08,16,10,23,19.70
2008,08,16,10,24,19.70
2008,08,16,10,25,19.60
2008,08,16,10,26,19.60
2008,08,16,10,27,19.60
2008,08,16,10,28,19.70
2008,08,16,10,29,19.70
2008,08,16,10,30,19.60
2008,08,16,10,31,19.50
2008,08,16,10,32,19.40
2008,08,16,10,33,19.20
2008,08,16,10,34,19.10
2008,08,16,10,35,19.00
2008,08,16,10,36,18.90
2008,08,16,10,37,19.00
2008,08,16,10,38,19.10
2008,08,16,10,39,19.10
2008,08,16,10,40,19.10
2008,08,16,10,41,18.90
2008,08,16,10,42,18.80
2008,08,16,10,43,18.50
2008,08,16,10,44,18.20
2008,08,16,10,45,17.80
2008,08,16,10,46,17.70
2008,08,16,10,47,17.60
2008,08,16,10,48,17.40
2008,08,16,10,49,17.10
2008,08,16,10,50,16.80
2008,08,16,10,51,16.70
2008,08,16,10,52,16.50
2008,08,16,10,53,16.40
2008,08,16,10,54,16.40
2008,08,16,10,55,16.50
2008,08,16,10,56,16.60
2008,08,16,10,57,16.80
2008,08,16,10,58,17.10
2008,08,16,10,59,17.20
2008,08,16,11,00,17.30
2008,08,16,11,01,17.30
2008,08,16,11,02,17.50
2008,08,16,11,03,17.50
2008,08,16,11,04,17.60
2008,08,16,11,05,17.80
2008,08,16,11,06,17.90
2008,08,16,11,07,18.10
2008,08,16,11,08,18.30
2008,08,16,11,09,18.40
2008,08,16,11,10,18.60
2008,08,16,11,11,18.70
2008,08,16,11,12,18.80
2008,08,16,11,13,18.80
2008,08,16,11,14,18.80
2008,08,16,11,15,18.90
2008,08,16,11,16,18.90
2008,08,16,11,17,19.00
2008,08,16,11,18,19.00
2008,08,16,11,19,19.20
2008,08,16,11,20,19.30
2008,08,16,11,21,19.30
2008,08,16,11,22,19.40
2008,08,16,11,23,19.60
2008,08,16,11,24,19.80
2008,08,16,11,25,19.90
2008,08,16,11,26,20.00
2008,08,16,11,27,20.10
2008,08,16,11,28,20.10
2008,08,16,11,29,20.10
2008,08,16,11,30,20.10
2008,08,16,11,31,20.00
2008,08,16,11,32,20.00
2008,08,16,11,33,20.00
2008,08,16,11,34,19.90
2008,08,16,11,35,19.80
2008,08,16,11,36,19.70
2008,08,16,11,37,19.70
2008,08,16,11,38,19.70
2008,08,16,11,39,19.70
2008,08,16,11,40,19.80
2008,08,16,11,41,19.80
2008,08,16,11,42,19.80
2008,08,16,11,43,19.90
2008,08,16,11,44,20.00
2008,08,16,11,45,20.00
2008,08,16,11,46,20.00
2008,08,16,11,47,20.00
2008,08,16,11,48,20.10
2008,08,16,11,49,20.20
2008,08,16,11,50,20.20
2008,08,16,11,51,20.10
2008,08,16,11,52,19.90
2008,08,16,11,53,19.80
2008,08,16,11,54,19.90
2008,08,16,11,55,20.00
2008,08,16,11,56,20.00
2008,08,16,11,57,20.10
2008,08,16,11,58,20.00
2008,08,16,11,59,20.10
2008,08,16,12,00,20.10
2008,08,16,12,01,20.10
2008,08,16,12,02,20.00
2008,08,16,12,03,20.00
2008,08,16,12,04,20.10
2008,08,16,12,05,20.20
2008,08,16,12,06,20.30
2008,08,16,12,07,20.30
2008,08,16,12,08,20.30
2008,08,16,12,09,20.30
2008,08,16,12,10,20.30
2008,08,16,12,11,20.30
2008,08,16,12,12,20.30
2008,08,16,12,13,20.20
2008,08,16,12,14,20.20
2008,08,16,12,15,20.20
2008,08,16,12,16,20.20
2008,08,16,12,17,20.30
2008,08,16,12,18,20.40
2008,08,16,12,19,20.50
2008,08,16,12,20,20.50
2008,08,16,12,21,20.50
2008,08,16,12,22,20.40
2008,08,16,12,23,20.30
2008,08,16,12,24,20.30
2008,08,16,12,25,20.30
2008,08,16,12,26,20.30
2008,08,16,12,27,20.30
2008,08,16,12,28,20.40
2008,08,16,12,29,20.40
2008,08,16,12,30,20.40
2008,08,16,12,31,20.40
2008,08,16,12,32,20.30
2008,08,16,12,33,20.30
2008,08,16,12,34,20.30
2008,08,16,12,35,20.40
2008,08,16,12,36,20.40
2008,08,16,12,37,20.50
2008,08,16,12,38,20.60
2008,08,16,12,39,20.70
2008,08,16,12,40,20.70
2008,08,16,12,41,20.80
2008,08,16,12,42,20.80
2008,08,16,12,43,20.80
2008,08,16,12,44,20.80
2008,08,16,12,45,20.90
2008,08,16,12,46,21.00
2008,08,16,12,47,21.10
2008,08,16,12,48,21.10
2008,08,16,12,49,21.10
2008,08,16,12,50,21.10
2008,08,16,12,51,21.10
2008,08,16,12,52,21.10
2008,08,16,12,53,21.10
2008,08,16,12,54,21.10
2008,08,16,12,55,21.10
2008,08,16,12,56,21.10
2008,08,16,12,57,21.20
2008,08,16,12,58,21.20
2008,08,16,12,59,21.30
2008,08,16,13,00,21.40
2008,08,16,13,01,21.50
2008,08,16,13,02,21.50
2008,08,16,13,03,21.50
2008,08,16,13,04,21.40
2008,08,16,13,05,21.10
2008,08,16,13,06,20.90
2008,08,16,13,07,20.70
2008,08,16,13,08,20.70
2008,08,16,13,09,20.50
2008,08,16,13,10,20.40
2008,08,16,13,11,20.40
2008,08,16,13,12,20.50
2008,08,16,13,13,20.60
2008,08,16,13,14,20.70
2008,08,16,13,15,20.80
2008,08,16,13,16,20.90
2008,08,16,13,17,21.00
2008,08,16,13,18,21.00
2008,08,16,13,19,21.00
2008,08,16,13,20,20.90
2008,08,16,13,21,21.00
2008,08,16,13,22,21.00
2008,08,16,13,23,21.00
2008,08,16,13,24,20.90
2008,08,16,13,25,20.90
2008,08,16,13,26,20.80
2008,08,16,13,27,20.90
2008,08,16,13,28,20.90
2008,08,16,13,29,20.90
2008,08,16,13,30,21.00
2008,08,16,13,31,21.10
2008,08,16,13,32,21.20
2008,08,16,13,33,21.10
2008,08,16,13,34,21.10
2008,08,16,13,35,21.10
2008,08,16,13,36,21.20
2008,08,16,13,37,21.30
2008,08,16,13,38,21.30
2008,08,16,13,39,21.30
2008,08,16,13,40,21.30
2008,08,16,13,41,21.30
2008,08,16,13,42,21.30
2008,08,16,13,43,21.10
2008,08,16,13,44,21.00
2008,08,16,13,45,20.90
2008,08,16,13,46,20.80
2008,08,16,13,47,20.70
2008,08,16,13,48,20.60
2008,08,16,13,49,20.50
2008,08,16,13,50,20.40
2008,08,16,13,51,20.50
2008,08,16,13,52,20.50
2008,08,16,13,53,20.60
2008,08,16,13,54,20.60
2008,08,16,13,55,20.50
2008,08,16,13,56,20.50
2008,08,16,13,57,20.50
2008,08,16,13,58,20.60
2008,08,16,13,59,20.60
2008,08,16,14,00,20.70
2008,08,16,14,01,20.70
2008,08,16,14,02,20.90
2008,08,16,14,03,21.00
2008,08,16,14,04,21.10
2008,08,16,14,05,21.10
2008,08,16,14,06,21.10
2008,08,16,14,07,21.10
2008,08,16,14,08,21.00
2008,08,16,14,09,21.00
2008,08,16,14,10,21.10
2008,08,16,14,11,21.10
2008,08,16,14,12,21.10
2008,08,16,14,13,21.20
2008,08,16,14,14,21.30
2008,08,16,14,15,21.40
2008,08,16,14,16,21.50
2008,08,16,14,17,21.50
2008,08,16,14,18,21.50
2008,08,16,14,19,21.50
2008,08,16,14,20,21.60
2008,08,16,14,21,21.70
2008,08,16,14,22,21.80
2008,08,16,14,23,21.80
2008,08,16,14,24,21.70
2008,08,16,14,25,21.80
2008,08,16,14,26,21.80
2008,08,16,14,27,22.00
2008,08,16,14,28,22.10
2008,08,16,14,29,22.10
2008,08,16,14,30,22.10
2008,08,16,14,31,22.10
2008,08,16,14,32,22.10
2008,08,16,14,33,22.10
2008,08,16,14,34,22.10
2008,08,16,14,35,22.20
2008,08,16,14,36,22.30
2008,08,16,14,37,22.30
2008,08,16,14,38,22.30
2008,08,16,14,39,22.30
2008,08,16,14,40,22.40
2008,08,16,14,41,22.30
2008,08,16,14,42,22.30
2008,08,16,14,43,22.30
2008,08,16,14,44,22.40
2008,08,16,14,45,22.30
2008,08,16,14,46,22.30
2008,08,16,14,47,22.30
2008,08,16,14,48,22.20
2008,08,16,14,49,22.20
2008,08,16,14,50,22.10
2008,08,16,14,51,22.10
2008,08,16,14,52,22.20
2008,08,16,14,53,22.20
2008,08,16,14,54,22.20
2008,08,16,14,55,22.20
2008,08,16,14,56,22.30
2008,08,16,14,57,22.40
2008,08,16,14,58,22.50
2008,08,16,14,59,22.50
2008,08,16,15,00,22.60
2008,08,16,15,01,22.60
2008,08,16,15,02,22.70
2008,08,16,15,03,22.80
2008,08,16,15,04,22.80
2008,08,16,15,05,22.70
2008,08,16,15,06,22.60
2008,08,16,15,07,22.50
2008,08,16,15,08,22.40
2008,08,16,15,09,22.40
2008,08,16,15,10,22.50
2008,08,16,15,11,22.70
2008,08,16,15,12,22.70
2008,08,16,15,13,22.70
2008,08,16,15,14,22.60
2008,08,16,15,15,22.50
2008,08,16,15,16,22.50
2008,08,16,15,17,22.50
2008,08,16,15,18,22.70
2008,08,16,15,19,22.80
2008,08,16,15,20,23.00
2008,08,16,15,21,23.10
2008,08,16,15,22,23.20
2008,08,16,15,23,23.10
2008,08,16,15,24,23.10
2008,08,16,15,25,23.20
2008,08,16,15,26,23.20
2008,08,16,15,27,23.20
2008,08,16,15,28,23.20
2008,08,16,15,29,23.20
2008,08,16,15,30,23.30
2008,08,16,15,31,23.30
2008,08,16,15,32,23.30
2008,08,16,15,33,23.20
2008,08,16,15,34,23.20
2008,08,16,15,35,23.20
2008,08,16,15,36,23.20
2008,08,16,15,37,23.20
2008,08,16,15,38,23.20
2008,08,16,15,39,23.20
2008,08,16,15,40,23.30
2008,08,16,15,41,23.40
2008,08,16,15,42,23.40
2008,08,16,15,43,23.50
2008,08,16,15,44,23.50
2008,08,16,15,45,23.40
2008,08,16,15,46,23.40
2008,08,16,15,47,23.40
2008,08,16,15,48,23.40
2008,08,16,15,49,23.40
2008,08,16,15,50,23.40
2008,08,16,15,51,23.40
2008,08,16,15,52,23.40
2008,08,16,15,53,23.40
2008,08,16,15,54,23.40
2008,08,16,15,55,23.30
2008,08,16,15,56,23.30
2008,08,16,15,57,23.30
2008,08,16,15,58,23.40
2008,08,16,15,59,23.40
2008,08,16,16,00,23.50
2008,08,16,16,01,23.70
2008,08,16,16,02,23.70
2008,08,16,16,03,23.70
2008,08,16,16,04,23.80
2008,08,16,16,05,23.70
2008,08,16,16,06,23.60
2008,08,16,16,07,23.60
2008,08,16,16,08,23.70
2008,08,16,16,09,23.70
2008,08,16,16,10,23.70
2008,08,16,16,11,23.80
2008,08,16,16,12,23.70
2008,08,16,16,13,23.60
2008,08,16,16,14,23.60
2008,08,16,16,15,23.60
2008,08,16,16,16,23.60
2008,08,16,16,17,23.60
2008,08,16,16,18,23.70
2008,08,16,16,19,23.70
2008,08,16,16,20,23.80
2008,08,16,16,21,23.70
2008,08,16,16,22,23.60
2008,08,16,16,23,23.60
2008,08,16,16,24,23.50
2008,08,16,16,25,23.40
2008,08,16,16,26,23.40
2008,08,16,16,27,23.40
2008,08,16,16,28,23.30
2008,08,16,16,29,23.30
2008,08,16,16,30,23.30
2008,08,16,16,31,23.30
2008,08,16,16,32,23.40
2008,08,16,16,33,23.50
2008,08,16,16,34,23.50
2008,08,16,16,35,23.60
2008,08,16,16,36,23.60
2008,08,16,16,37,23.60
2008,08,16,16,38,23.60
2008,08,16,16,39,23.60
2008,08,16,16,40,23.60
2008,08,16,16,41,23.70
2008,08,16,16,42,23.70
2008,08,16,16,43,23.70
2008,08,16,16,44,23.70
2008,08,16,16,45,23.70
2008,08,16,16,46,23.70
2008,08,16,16,47,23.80
2008,08,16,16,48,23.80
2008,08,16,16,49,23.80
2008,08,16,16,50,23.90
2008,08,16,16,51,24.00
2008,08,16,16,52,24.10
2008,08,16,16,53,24.20
2008,08,16,16,54,24.20
2008,08,16,16,55,24.30
2008,08,16,16,56,24.30
2008,08,16,16,57,24.40
2008,08,16,16,58,24.40
2008,08,16,16,59,24.40
2008,08,16,17,00,24.50
2008,08,16,17,01,24.50
2008,08,16,17,02,24.60
2008,08,16,17,03,24.70
2008,08,16,17,04,24.70
2008,08,16,17,05,24.70
2008,08,16,17,06,24.70
2008,08,16,17,07,24.70
2008,08,16,17,08,24.70
2008,08,16,17,09,24.70
2008,08,16,17,10,24.60
2008,08,16,17,11,24.50
2008,08,16,17,12,24.40
2008,08,16,17,13,24.40
2008,08,16,17,14,24.30
2008,08,16,17,15,24.20
2008,08,16,17,16,24.10
2008,08,16,17,17,24.10
2008,08,16,17,18,24.10
2008,08,16,17,19,24.10